Home   Weather   Karmiel   Past weeks

Flag for Israel Past Weather in Karmiel, Israel — Yesterday and Last 2 Weeks

Now
70 °F

Passing clouds.


Feels Like: 70 °F
Forecast: 53 / 75 °F
Wind: 5 mph from West

Location: Sde-Haifa Haifa

Current Time: Apr 27, 2017 at 10:02:00 pm

Latest Report: Apr 27, 2017 at 7:50 pm


Visibility: N/A

Pressure: 29.92 "Hg

Humidity: 64%

Dew Point: 57 °F

Location of KarmielLocation

Past Weather in Karmiel — Graph

°F

Karmiel Temperature Yesterday

Maximum temperature yesterday: 72 °F (at 2:50 pm)
Minimum temperature yesterday: 61 °F (at 6:30 am)
Average temperature yesterday: 68 °F

High & Low Weather Summary for the Past Weeks

 TemperatureHumidityPressure
High102 °F (Apr 22, 3:50 pm)94% (Apr 16, 4:50 am)30.12 "Hg (Apr 16, 4:50 am)
Low55 °F (Apr 19, 6:30 am)8% (Apr 22, 2:50 pm)29.62 "Hg (Apr 22, 4:50 pm)
Average69 °F63%29.97 "Hg
* Reported Apr 12 7:50 pm — Apr 27 7:50 pm, Karmiel, Weather by CustomWeather, © 2017

Note: Actual official high and low records may vary slightly from our data, if they occured in-between our weather recording intervals... More about our weather records

Advertising

Karmiel Weather History for the Previous 24 Hours

Scroll right to see more
 ConditionsComfort  
Time TempWeatherWind HumidityBarometerVisibility
7:50 pm
Thu, Apr 27
70 °FPassing clouds.5 mph64%29.92 "HgN/A
6:50 pm70 °FSunny.8 mph69%29.92 "Hg10 mi
5:50 pm70 °FSunny.7 mph69%29.92 "Hg10 mi
4:50 pm72 °FSunny.12 mph69%29.95 "Hg10 mi
3:50 pm70 °FSunny.15 mph73%29.92 "Hg10 mi
2:50 pm72 °FSunny.14 mph69%29.92 "Hg10 mi
1:50 pm75 °FPassing clouds.8 mph61%29.95 "HgN/A
12:50 pm73 °FPassing clouds.12 mph65%29.95 "HgN/A
11:50 am75 °FPassing clouds.6 mph61%29.95 "HgN/A
10:50 am73 °FSunny.6 mph65%29.95 "Hg10 mi
9:50 am70 °FSunny.6 mph69%29.95 "Hg10 mi
8:50 am70 °FSunny.3 mph69%29.95 "Hg10 mi
7:50 am66 °FSunny.3 mph78%29.95 "Hg10 mi
6:50 am63 °FPassing clouds.3 mph88%29.95 "Hg5 mi
6:30 am63 °FPassing clouds.1 mph88%29.92 "Hg5 mi
5:50 am63 °FClear.2 mph83%29.92 "Hg4 mi
4:50 am64 °FClear.5 mph78%29.92 "Hg6 mi
Weather by CustomWeather, © 2017

See weather overviewHow to use our weather pages